Stations météo

Publicité
Toulouse/Blagnac, France (7630): Température de l'air & dewpoint: 16.09.2018 17:00:00 - 22.09.2018 17:00:00 (CEST)Toulouse/Blagnac, France (7630): Température de l'air 5cm: 16.09.2018 17:00:00 - 22.09.2018 17:00:00 (CEST)Toulouse/Blagnac, France (7630): Température de l'air -20cm & Température de l'air -100cm: 16.09.2018 17:00:00 - 22.09.2018 17:00:00 (CEST)Toulouse/Blagnac, France (7630): Vitesse du vent & gusts: 16.09.2018 17:00:00 - 22.09.2018 17:00:00 (CEST)Toulouse/Blagnac, France (7630): Direction du vent: 16.09.2018 17:00:00 - 22.09.2018 17:00:00 (CEST)Toulouse/Blagnac, France (7630): reduced air pressure: 16.09.2018 17:00:00 - 22.09.2018 17:00:00 (CEST)Toulouse/Blagnac, France (7630): visibility: 16.09.2018 17:00:00 - 22.09.2018 17:00:00 (CEST)Toulouse/Blagnac, France (7630): Ensoleillement: 16.09.2018 17:00:00 - 22.09.2018 17:00:00 (CEST)Toulouse/Blagnac, France (7630): Quantités de précipitations: 16.09.2018 17:00:00 - 22.09.2018 17:00:00 (CEST)
Date & Time tt [°C] td [°C] tt 5cm [°C] tt -20cm [°C] tt -100cm [°C] ff [km/h] ff [knt] fx [km/h] fx [knt] dd ppp [hPa] vv [km] sd [min] rr [mm]
22.09.2018 17:00:00 - - - - - - - - - - - - - -
22.09.2018 16:00:00 26,5 12,5 33,7 22,0 21,0 6 3 20 11 NW 1022,4 19 60 0,0
22.09.2018 15:00:00 25,8 13,0 32,4 21,8 21,0 8 4 22 12 W 1022,8 55 60 0,0
22.09.2018 14:00:00 23,5 12,5 30,5 21,6 21,0 8 4 21 12 NNW 1023,5 55 60 0,0
22.09.2018 13:00:00 22,4 12,9 30,2 21,5 21,0 5 3 18 10 NE 1024,0 18 60 0,0
22.09.2018 12:00:00 20,7 12,1 28,2 21,5 21,0 8 5 20 11 NW 1024,4 52 60 0,0
22.09.2018 11:00:00 19,7 12,2 25,7 21,5 21,0 4 2 13 7 NE 1024,4 44 60 0,0
22.09.2018 10:00:00 18,1 12,1 21,2 21,6 21,0 5 3 10 6 N 1024,4 35 60 0,0
22.09.2018 09:00:00 16,4 12,9 14,0 21,7 21,0 6 3 13 7 N 1024,2 40 55 0,0
22.09.2018 08:00:00 15,4 13,2 13,9 21,8 21,0 5 3 14 8 NNE 1024,2 42 0 0,0
22.09.2018 07:00:00 16,1 13,9 14,3 21,9 21,0 9 5 13 7 N 1023,8 48 0 0,0
22.09.2018 06:00:00 16,1 13,9 14,8 22,0 21,0 9 5 13 7 NW 1023,8 52 0 0,0
22.09.2018 05:00:00 16,6 13,7 15,5 22,1 21,0 4 2 11 6 N 1024,0 55 0 0,0
22.09.2018 04:00:00 17,0 13,7 16,8 22,2 21,0 6 4 22 12 N 1024,1 59 0 0,0
22.09.2018 03:00:00 17,4 13,7 16,8 22,3 21,0 16 9 21 12 NW 1024,7 60 0 0,0
22.09.2018 02:00:00 17,9 13,8 17,6 22,4 21,0 15 8 21 11 NW 1024,4 60 0 0,0
22.09.2018 01:00:00 17,8 14,1 17,4 22,4 21,0 11 6 16 9 WNW 1024,5 60 0 0,0
22.09.2018 00:00:00 17,6 14,9 16,8 22,5 21,0 9 5 17 9 WNW 1024,6 60 0 0,0
21.09.2018 23:00:00 17,8 15,1 17,2 22,6 21,0 15 8 30 16 NNW 1024,3 18 0 0,0
21.09.2018 22:00:00 18,2 15,1 18,1 22,6 21,0 20 11 39 21 NNW 1023,7 60 0 0,0
21.09.2018 21:00:00 20,4 15,6 19,8 22,6 20,9 22 12 45 24 NNW 1022,6 60 0 0,0
21.09.2018 20:00:00 21,5 15,6 21,0 22,6 21,0 27 15 51 27 NNW 1021,9 60 0 0,0
21.09.2018 19:00:00 25,2 14,0 25,1 22,6 21,0 23 12 40 21 WNW 1020,2 41 6 0,0
21.09.2018 18:00:00 26,4 13,5 28,1 22,4 20,9 26 14 44 24 WNW 1020,0 19 45 0,0
21.09.2018 17:00:00 27,0 13,7 28,7 22,3 21,0 27 14 42 23 NW 1019,3 20 40 0,0
21.09.2018 16:00:00 26,5 12,9 29,8 22,2 21,0 22 12 35 19 WNW 1018,9 40 36 0,0
21.09.2018 15:00:00 26,5 13,9 28,4 22,0 21,0 16 9 31 17 WNW 1019,3 34 34 0,0
21.09.2018 14:00:00 25,0 14,5 29,4 21,9 21,0 19 10 35 19 WNW 1020,1 45 37 0,0
21.09.2018 13:00:00 24,2 15,1 27,3 21,8 20,9 11 6 28 15 W 1020,5 20 33 0,0
21.09.2018 12:00:00 22,9 15,7 26,0 21,8 21,0 13 7 28 15 W 1020,6 23 20 0,0
21.09.2018 11:00:00 22,1 15,4 24,6 21,8 20,9 13 7 24 13 NW 1020,4 28 44 0,0
21.09.2018 10:00:00 20,1 15,7 19,6 21,9 21,0 10 5 22 12 W 1019,8 25 3 0,0
21.09.2018 09:00:00 18,9 15,9 17,4 22,1 21,0 13 7 22 12 W 1019,3 19 13 0,0
21.09.2018 08:00:00 17,9 15,9 17,1 22,1 20,9 15 8 24 13 W 1018,6 15 0 0,0
21.09.2018 07:00:00 18,2 16,0 17,1 22,2 20,9 17 9 28 15 W 1017,8 15 0 0,0
21.09.2018 06:00:00 18,6 16,0 17,0 22,3 20,9 13 7 19 10 W 1016,9 18 0 0,0
21.09.2018 05:00:00 19,0 16,0 15,2 22,5 20,9 12 7 26 14 WNW 1016,7 21 0 0,0
21.09.2018 04:00:00 17,7 14,4 14,1 22,6 21,0 7 4 14 7 SSW 1016,5 31 0 0,0
21.09.2018 03:00:00 17,9 13,8 14,2 22,8 20,9 8 4 11 6 S 1016,1 31 0 0,0
21.09.2018 02:00:00 19,3 13,7 15,2 22,9 20,9 7 4 11 6 SSW 1016,1 34 0 0,0
21.09.2018 01:00:00 19,9 14,0 16,2 23,0 20,9 7 4 18 10 SE 1015,9 33 0 0,0
21.09.2018 00:00:00 21,0 13,9 15,9 23,2 21,0 6 3 13 7 S 1015,9 30 0 0,0
20.09.2018 23:00:00 22,5 13,6 16,8 23,2 20,9 6 4 9 5 SSE 1015,8 31 0 0,0
20.09.2018 22:00:00 24,9 12,8 18,9 23,3 20,9 8 4 11 6 SW 1015,8 43 0 0,0
20.09.2018 21:00:00 26,9 12,2 20,6 23,4 21,0 7 4 17 9 SW 1015,5 46 0 0,0
20.09.2018 20:00:00 28,6 11,6 22,3 23,3 20,9 6 4 11 6 S 1015,2 50 34 0,0
20.09.2018 19:00:00 31,1 9,9 34,3 23,1 20,9 4 2 13 7 SSE 1015,1 44 60 0,0
20.09.2018 18:00:00 31,9 11,1 38,5 23,0 21,0 6 3 13 7 SE 1015,2 46 60 0,0
20.09.2018 17:00:00 31,9 10,6 39,5 22,6 20,9 7 4 15 8 NE 1015,8 52 60 0,0
20.09.2018 16:00:00 31,4 12,2 39,8 22,4 20,9 9 5 17 9 ESE 1016,5 20 60 0,0
20.09.2018 15:00:00 30,4 15,3 37,7 22,1 20,9 8 4 18 10 E 1017,4 37 60 0,0
20.09.2018 14:00:00 29,0 16,5 35,8 21,9 20,9 9 5 19 10 E 1018,3 28 60 0,0
20.09.2018 13:00:00 27,5 16,8 33,5 21,7 20,9 6 3 16 8 ESE 1019,2 19 60 0,0
20.09.2018 12:00:00 25,7 17,1 31,7 21,7 21,0 5 3 15 8 E 1020,0 19 60 0,0
20.09.2018 11:00:00 23,1 16,9 28,3 21,7 20,9 4 2 10 5 SSW 1020,7 11 60 0,0
20.09.2018 10:00:00 20,9 16,5 23,2 21,8 20,9 4 2 31 17 NW 1021,0 18 60 0,0
20.09.2018 09:00:00 18,1 16,3 15,3 21,9 21,0 4 2 10 5 SSW 1020,9 15 60 0,0
20.09.2018 08:00:00 16,3 15,3 13,3 22,0 20,9 8 4 10 5 S 1021,0 12 0 0,0
20.09.2018 07:00:00 16,3 15,2 13,6 22,1 20,9 6 4 13 7 S 1020,9 10 0 0,0
20.09.2018 06:00:00 16,8 15,3 13,3 22,3 20,9 9 5 12 7 S 1020,7 14 0 0,0
20.09.2018 05:00:00 16,7 15,1 14,1 22,4 20,9 6 3 12 7 S 1020,9 16 0 0,0
20.09.2018 04:00:00 17,5 15,3 15,2 22,5 20,9 6 3 16 9 SSW 1020,9 19 0 0,0
20.09.2018 03:00:00 18,4 16,0 15,7 22,6 20,9 9 5 13 7 SSW 1020,8 22 0 0,0
20.09.2018 02:00:00 18,7 15,9 15,7 22,7 20,9 7 4 11 6 S 1020,9 22 0 0,0
20.09.2018 01:00:00 19,6 15,5 15,7 22,9 20,9 7 4 10 6 S 1021,1 29 0 0,0
20.09.2018 00:00:00 20,6 14,9 16,2 23,0 20,9 6 3 8 4 S 1021,0 32 0 0,0
19.09.2018 23:00:00 21,6 15,0 18,0 23,1 20,9 6 3 13 7 SSW 1020,7 29 0 0,0
19.09.2018 22:00:00 24,4 14,8 19,8 23,1 20,9 6 3 16 9 WNW 1020,3 31 0 0,0
19.09.2018 21:00:00 25,4 14,5 22,4 23,1 20,9 10 5 15 8 NW 1019,7 39 0 0,0
19.09.2018 20:00:00 26,8 14,5 23,5 23,1 20,9 8 5 22 12 WNW 1019,3 20 36 0,0
19.09.2018 19:00:00 28,9 14,3 32,0 22,9 20,9 8 4 16 9 NNW 1019,2 26 60 0,0
19.09.2018 18:00:00 29,4 14,8 36,9 22,7 20,9 6 4 17 9 N 1018,9 38 60 0,0
19.09.2018 17:00:00 29,5 14,9 37,0 22,4 20,9 6 4 19 10 NE 1019,1 31 60 0,0
19.09.2018 16:00:00 29,0 14,8 37,0 22,2 20,9 7 4 18 10 NNW 1019,6 23 60 0,0
19.09.2018 15:00:00 27,8 16,1 35,3 22,0 20,9 6 3 14 8 E 1020,1 15 60 0,0
19.09.2018 14:00:00 25,5 17,2 32,6 21,8 20,9 4 2 17 9 NE 1020,7 14 60 0,0
19.09.2018 13:00:00 23,6 17,6 26,8 21,8 20,9 5 3 16 9 ESE 1021,5 13 47 0,0
19.09.2018 12:00:00 21,0 17,4 22,2 21,7 20,9 3 2 12 7 W 1022,2 13 0 0,0
19.09.2018 11:00:00 19,5 16,9 20,9 21,7 20,9 3 2 11 6 SW 1022,3 11 0 0,0
19.09.2018 10:00:00 18,8 16,9 18,3 21,8 20,9 3 2 11 6 S 1021,7 10 0 0,0
19.09.2018 09:00:00 18,2 16,9 17,8 21,9 20,9 8 4 18 10 W 1021,2 8 0 0,0
19.09.2018 08:00:00 18,2 16,9 16,6 21,9 20,9 9 5 17 9 WSW 1020,6 7 0 0,0
19.09.2018 07:00:00 18,4 16,4 15,6 22,1 20,9 6 3 12 6 W 1020,1 17 0 0,0
19.09.2018 06:00:00 18,9 17,0 15,0 22,2 20,9 4 2 12 6 W 1019,7 20 0 0,0
19.09.2018 05:00:00 18,8 17,1 14,8 22,3 20,9 5 3 10 5 WSW 1019,6 18 0 0,0
19.09.2018 04:00:00 18,6 16,7 15,1 22,5 20,9 9 5 11 6 SE 1019,0 16 0 0,0
19.09.2018 03:00:00 20,2 17,4 15,1 22,6 20,9 7 4 10 6 E 1019,3 24 0 0,0
19.09.2018 02:00:00 20,1 16,7 16,6 22,7 20,9 3 1 17 9 WSW 1019,2 28 0 0,0
19.09.2018 01:00:00 20,8 16,6 17,5 22,9 20,9 6 3 21 11 S 1018,8 30 0 0,0
19.09.2018 00:00:00 21,3 16,5 19,1 23,0 20,9 10 6 22 12 SSE 1018,7 33 0 0,0
18.09.2018 23:00:00 22,6 16,6 21,2 23,0 20,9 16 9 29 15 ESE 1018,6 36 0 0,0
18.09.2018 22:00:00 23,2 16,0 21,0 23,1 20,9 13 7 26 14 SE 1017,9 44 0 0,0
18.09.2018 21:00:00 24,1 15,3 21,7 23,1 20,9 13 7 28 15 SE 1016,9 48 0 0,0
18.09.2018 20:00:00 25,2 14,9 23,8 23,2 20,9 16 8 29 16 ESE 1016,3 49 38 0,0
18.09.2018 19:00:00 26,7 14,8 29,2 23,1 20,9 17 9 31 17 SE 1015,8 19 60 0,0
18.09.2018 18:00:00 27,8 15,1 32,0 22,9 20,9 15 8 34 19 ESE 1015,4 16 60 0,0
18.09.2018 17:00:00 28,5 15,4 34,8 22,7 20,9 21 11 40 22 SE 1015,5 14 60 0,0
18.09.2018 16:00:00 28,8 15,7 33,4 22,5 20,9 24 13 42 23 SE 1015,5 9 54 0,0
18.09.2018 15:00:00 28,6 16,5 34,2 22,3 20,9 23 13 37 20 SE 1015,6 12 58 0,0
18.09.2018 14:00:00 28,2 16,8 32,0 22,0 20,9 20 11 39 21 ESE 1016,1 14 60 0,0
18.09.2018 13:00:00 26,3 16,5 29,6 21,9 20,9 25 13 39 21 SE 1016,5 15 36 0,0
18.09.2018 12:00:00 25,7 17,1 29,4 21,8 20,9 27 14 42 23 SE 1016,9 16 52 0,0
18.09.2018 11:00:00 24,8 17,0 25,5 21,7 20,9 28 15 45 24 SE 1016,9 11 60 0,0
18.09.2018 10:00:00 22,8 17,0 23,5 21,8 20,9 22 12 42 23 SE 1016,9 13 33 0,0
18.09.2018 09:00:00 21,5 16,9 19,7 21,9 20,9 22 12 44 24 ESE 1016,7 11 60 0,0
18.09.2018 08:00:00 20,5 16,7 18,5 21,9 20,9 21 12 35 19 SE 1016,0 22 2 0,0
18.09.2018 07:00:00 20,2 17,0 18,3 22,0 20,9 16 9 27 15 SE 1016,2 19 0 0,0
18.09.2018 06:00:00 20,5 17,3 19,0 22,1 20,9 15 8 27 15 SSE 1016,0 18 0 0,0
18.09.2018 05:00:00 20,8 17,4 19,4 22,2 20,9 13 7 29 16 SSE 1015,9 21 0 0,0
18.09.2018 04:00:00 20,7 17,3 19,4 22,3 20,9 18 10 39 21 SSE 1015,7 21 0 0,0
18.09.2018 03:00:00 20,8 17,2 19,6 22,4 20,9 24 13 45 24 SE 1015,8 24 0 0,0
18.09.2018 02:00:00 20,8 17,4 19,4 22,5 20,9 23 13 40 22 SE 1015,9 25 0 0,0
18.09.2018 01:00:00 20,6 17,2 19,1 22,6 20,9 25 14 40 22 SE 1015,9 30 0 0,0
18.09.2018 00:00:00 20,9 16,3 19,7 22,7 20,9 22 12 42 23 SE 1015,8 39 0 0,0
17.09.2018 23:00:00 21,7 14,1 20,2 22,8 20,9 26 14 41 22 SE 1016,1 49 0 0,0
17.09.2018 22:00:00 22,3 15,9 20,9 22,9 20,9 24 13 44 24 SE 1015,8 32 0 0,0
17.09.2018 21:00:00 23,1 16,6 21,6 22,9 20,9 21 12 44 24 SE 1015,2 38 0 0,0
17.09.2018 20:00:00 24,6 16,8 23,6 22,9 20,9 26 14 49 26 SE 1014,6 42 40 0,0
17.09.2018 19:00:00 26,3 17,1 28,3 22,8 20,9 26 14 47 25 SE 1014,5 11 60 0,0
17.09.2018 18:00:00 27,5 16,8 29,4 22,7 20,9 29 16 48 26 SE 1014,6 7 47 0,0
17.09.2018 17:00:00 29,1 16,3 34,5 22,5 20,9 30 16 47 25 SE 1014,9 6 60 0,0
17.09.2018 16:00:00 29,5 17,3 31,6 22,3 20,9 28 15 46 25 SE 1015,6 7 37 0,0
17.09.2018 15:00:00 27,9 16,8 31,6 22,0 20,9 29 16 49 26 SE 1016,5 7 47 0,0
17.09.2018 14:00:00 28,8 18,3 32,4 21,8 20,9 24 13 45 24 SE 1016,9 8 58 0,0
17.09.2018 13:00:00 27,2 18,2 29,9 21,6 20,9 26 14 46 25 SE 1017,5 10 49 0,0
17.09.2018 12:00:00 25,9 17,8 30,5 21,5 20,9 23 13 42 23 ESE 1018,2 12 60 0,0
17.09.2018 11:00:00 24,7 17,9 24,7 21,4 20,9 25 13 42 23 SE 1018,6 15 49 0,0
17.09.2018 10:00:00 22,2 17,8 20,5 21,5 20,9 21 12 34 19 SE 1019,1 20 49 0,0
17.09.2018 09:00:00 19,3 16,7 17,8 21,5 20,9 10 6 18 10 S 1019,5 18 13 0,0
17.09.2018 08:00:00 18,6 16,6 17,6 21,6 20,9 8 4 21 11 S 1019,5 16 0 0,0
17.09.2018 07:00:00 18,8 16,0 18,4 21,7 20,9 16 9 29 16 S 1019,4 24 0 0,0
17.09.2018 06:00:00 19,6 17,4 17,4 21,7 20,9 16 9 29 15 SE 1019,2 17 0 0,0
17.09.2018 05:00:00 19,0 15,1 15,7 21,9 20,9 3 2 6 3 S 1019,7 33 0 0,0
17.09.2018 04:00:00 19,2 14,5 15,4 22,0 20,9 3 2 8 4 NW 1019,7 36 0 0,0
17.09.2018 03:00:00 19,2 14,9 15,8 22,1 20,9 4 2 11 6 S 1019,9 36 0 0,0
17.09.2018 02:00:00 19,6 14,6 17,1 22,3 20,9 8 5 18 10 S 1020,0 41 0 0,0
17.09.2018 01:00:00 20,3 14,6 17,5 22,3 20,9 11 6 22 12 S 1020,1 43 0 0,0
17.09.2018 00:00:00 21,2 14,4 17,5 22,5 21,0 8 4 19 10 S 1020,4 53 0 0,0
16.09.2018 23:00:00 22,6 14,2 20,0 22,5 20,9 13 7 27 15 SSE 1020,5 55 0 0,0
16.09.2018 22:00:00 24,6 13,8 20,4 22,6 20,9 10 5 16 9 ESE 1020,2 49 0 0,0
16.09.2018 21:00:00 26,4 13,8 23,5 22,6 20,9 6 4 18 10 N 1019,1 60 0 0,0
16.09.2018 20:00:00 28,0 13,9 26,4 22,5 20,9 11 6 21 11 NNW 1018,4 60 0 0,0
16.09.2018 19:00:00 29,7 13,0 30,3 22,4 21,0 14 8 24 13 NW 1018,0 37 54 0,0
16.09.2018 18:00:00 30,6 13,8 35,8 22,2 21,0 11 6 29 16 NW 1017,7 28 60 0,0
16.09.2018 17:00:00 30,8 14,0 36,9 21,9 21,0 12 6 29 16 WNW 1018,0 60 60 0,0

tt = Température de l'air
td = dewpoint
tt 5cm = Température de l'air 5cm
tt -20cm = Température de l'air -20cm
tt -100cm = Température de l'air -100cm
ff = Vitesse du vent
fx = gusts
dd = Direction du vent
ppp = reduced air pressure
vv = visibility
sd = Ensoleillement
rr = Quantités de précipitations

stations d'obs. à proximité